Time,TemperatureF,DewpointF,PressureIn,WindDirection,WindDirectionDegrees,WindSpeedMPH,WindSpeedGustMPH,Humidity,HourlyPrecipIn,Conditions,Clouds,dailyrainin,SoftwareType,DateUTC
2013-04-08 00:03:00,41.4,32.8,29.79,NNW,338,1.6,2.0,71,0.00,,,0.00,WUHU216HW,2013-04-08 04:03:00,
2013-04-08 00:08:00,41.6,32.6,29.79,WSW,248,2.0,3.4,70,0.00,,,0.00,WUHU216HW,2013-04-08 04:08:00,
2013-04-08 00:13:00,41.8,32.4,29.80,SSE,158,2.5,3.4,69,0.00,,,0.00,WUHU216HW,2013-04-08 04:13:00,
2013-04-08 00:18:00,42.1,33.5,29.79,West,270,1.8,2.7,71,0.00,,,0.00,WUHU216HW,2013-04-08 04:18:00,
2013-04-08 00:23:00,42.5,33.5,29.79,SE,135,1.3,3.4,70,0.00,,,0.00,WUHU216HW,2013-04-08 04:23:00,
2013-04-08 00:28:00,42.5,33.1,29.79,SE,135,1.1,3.4,69,0.00,,,0.00,WUHU216HW,2013-04-08 04:28:00,
2013-04-08 00:33:00,42.3,33.0,29.80,WSW,248,0.0,2.7,69,0.00,,,0.00,WUHU216HW,2013-04-08 04:33:00,
2013-04-08 00:38:00,42.3,33.0,29.80,NE,45,0.4,2.0,69,0.00,,,0.00,WUHU216HW,2013-04-08 04:38:00,
2013-04-08 00:43:00,42.5,33.9,29.80,NW,315,2.2,2.9,71,0.00,,,0.00,WUHU216HW,2013-04-08 04:43:00,
2013-04-08 00:49:00,42.5,33.1,29.80,WNW,293,0.0,2.9,69,0.00,,,0.00,WUHU216HW,2013-04-08 04:49:00,
2013-04-08 00:54:00,42.1,32.8,29.80,WSW,248,0.2,1.3,69,0.00,,,0.00,WUHU216HW,2013-04-08 04:54:00,
2013-04-08 00:59:00,41.8,32.4,29.81,ENE,68,0.0,1.1,69,0.00,,,0.00,WUHU216HW,2013-04-08 04:59:00,
2013-04-08 01:05:00,41.4,31.7,29.81,WSW,248,0.0,1.1,68,0.00,,,0.00,WUHU216HW,2013-04-08 05:05:00,
2013-04-08 01:10:00,41.0,31.7,29.81,WNW,293,0.0,1.1,69,0.00,,,0.00,WUHU216HW,2013-04-08 05:10:00,
2013-04-08 01:15:00,40.9,32.2,29.81,NNW,338,1.3,1.8,71,0.00,,,0.00,WUHU216HW,2013-04-08 05:15:00,
2013-04-08 01:20:00,40.7,32.3,29.81,North,0,0.0,1.8,72,0.00,,,0.00,WUHU216HW,2013-04-08 05:20:00,
2013-04-08 01:25:00,40.5,32.1,29.81,North,0,1.1,1.6,72,0.00,,,0.00,WUHU216HW,2013-04-08 05:25:00,
2013-04-08 01:30:00,40.5,32.1,29.82,NNW,338,1.1,1.6,72,0.00,,,0.00,WUHU216HW,2013-04-08 05:30:00,
2013-04-08 01:35:00,40.5,31.9,29.82,North,0,0.0,1.6,71,0.00,,,0.00,WUHU216HW,2013-04-08 05:35:00,
2013-04-08 01:40:00,40.5,31.9,29.81,East,90,0.0,1.1,71,0.00,,,0.00,WUHU216HW,2013-04-08 05:40:00,
2013-04-08 01:45:00,40.3,31.7,29.81,SE,135,1.3,1.6,71,0.00,,,0.00,WUHU216HW,2013-04-08 05:45:00,
2013-04-08 01:50:00,40.0,31.0,29.81,SE,135,2.0,2.5,70,0.00,,,0.00,WUHU216HW,2013-04-08 05:50:00,
2013-04-08 01:55:00,39.2,30.2,29.81,SE,135,0.4,2.5,70,0.00,,,0.00,WUHU216HW,2013-04-08 05:55:00,
2013-04-08 02:00:00,38.9,31.2,29.81,NNW,338,1.6,2.2,74,0.00,,,0.00,WUHU216HW,2013-04-08 06:00:00,
2013-04-08 02:05:00,38.3,30.4,29.82,WNW,293,2.5,2.5,73,0.00,,,0.00,WUHU216HW,2013-04-08 06:05:00,
2013-04-08 02:10:00,38.5,30.6,29.82,West,270,1.8,2.7,73,0.00,,,0.00,WUHU216HW,2013-04-08 06:10:00,
2013-04-08 02:15:00,38.9,31.0,29.82,SW,225,0.4,2.7,73,0.00,,,0.00,WUHU216HW,2013-04-08 06:15:00,
2013-04-08 02:20:00,38.9,31.0,29.81,SSE,158,0.7,2.5,73,0.00,,,0.00,WUHU216HW,2013-04-08 06:20:00,
2013-04-08 02:25:00,39.2,31.2,29.81,SSE,158,0.2,4.0,73,0.00,,,0.00,WUHU216HW,2013-04-08 06:25:00,
2013-04-08 02:30:00,39.2,31.2,29.82,NNW,338,1.8,4.0,73,0.00,,,0.00,WUHU216HW,2013-04-08 06:30:00,
2013-04-08 02:35:00,38.9,31.0,29.83,North,0,1.1,2.5,73,0.00,,,0.00,WUHU216HW,2013-04-08 06:35:00,
2013-04-08 02:40:00,39.1,31.2,29.83,WSW,248,0.0,2.5,73,0.00,,,0.00,WUHU216HW,2013-04-08 06:40:00,
2013-04-08 02:45:00,39.1,30.8,29.82,SSE,158,1.3,1.3,72,0.00,,,0.00,WUHU216HW,2013-04-08 06:45:00,
2013-04-08 02:50:00,38.7,30.4,29.82,SW,225,0.4,1.8,72,0.00,,,0.00,WUHU216HW,2013-04-08 06:50:00,
2013-04-08 02:55:00,38.5,30.6,29.82,WSW,248,2.2,2.2,73,0.00,,,0.00,WUHU216HW,2013-04-08 06:55:00,
2013-04-08 03:00:00,38.2,30.2,29.82,WSW,248,0.4,2.2,73,0.00,,,0.00,WUHU216HW,2013-04-08 07:00:00,
2013-04-08 03:06:00,38.0,30.1,29.83,SE,135,1.3,2.2,73,0.00,,,0.00,WUHU216HW,2013-04-08 07:06:00,
2013-04-08 03:11:00,38.0,30.1,29.82,ESE,113,0.9,1.8,73,0.00,,,0.00,WUHU216HW,2013-04-08 07:11:00,
2013-04-08 03:16:00,38.0,30.1,29.82,West,270,0.9,1.8,73,0.00,,,0.00,WUHU216HW,2013-04-08 07:16:00,
2013-04-08 03:21:00,38.2,30.6,29.82,West,270,1.3,3.6,74,0.00,,,0.00,WUHU216HW,2013-04-08 07:21:00,
2013-04-08 03:26:00,38.2,29.6,29.84,NNW,338,3.8,3.8,71,0.00,,,0.00,WUHU216HW,2013-04-08 07:26:00,
2013-04-08 03:31:00,38.2,30.2,29.84,WNW,293,0.4,3.8,73,0.00,,,0.00,WUHU216HW,2013-04-08 07:31:00,
2013-04-08 03:36:00,38.5,29.6,29.84,NNW,338,1.6,3.6,70,0.00,,,0.00,WUHU216HW,2013-04-08 07:36:00,
2013-04-08 03:41:00,38.5,30.2,29.84,North,0,0.2,3.6,72,0.00,,,0.00,WUHU216HW,2013-04-08 07:41:00,
2013-04-08 03:46:00,38.5,30.2,29.84,ESE,113,0.9,2.0,72,0.00,,,0.00,WUHU216HW,2013-04-08 07:46:00,
2013-04-08 03:52:00,38.2,29.6,29.84,North,0,1.1,2.7,71,0.00,,,0.00,WUHU216HW,2013-04-08 07:52:00,
2013-04-08 03:57:00,38.2,28.5,29.84,NW,315,3.6,3.6,68,0.00,,,0.00,WUHU216HW,2013-04-08 07:57:00,
2013-04-08 04:02:00,39.1,30.1,29.84,North,0,1.1,3.6,70,0.00,,,0.00,WUHU216HW,2013-04-08 08:02:00,
2013-04-08 04:07:00,39.2,30.6,29.84,ENE,68,1.3,3.4,71,0.00,,,0.00,WUHU216HW,2013-04-08 08:07:00,
2013-04-08 04:12:00,39.2,30.6,29.84,NNW,338,1.1,2.9,71,0.00,,,0.00,WUHU216HW,2013-04-08 08:12:00,
2013-04-08 04:17:00,39.2,30.6,29.85,NNW,338,2.0,2.0,71,0.00,,,0.00,WUHU216HW,2013-04-08 08:17:00,
2013-04-08 04:22:00,39.1,30.8,29.84,WNW,293,0.0,2.2,72,0.00,,,0.00,WUHU216HW,2013-04-08 08:22:00,
2013-04-08 04:27:00,38.9,31.0,29.85,WNW,293,0.0,2.2,73,0.00,,,0.00,WUHU216HW,2013-04-08 08:27:00,
2013-04-08 04:32:00,38.7,30.8,29.85,SSE,158,1.8,2.5,73,0.00,,,0.00,WUHU216HW,2013-04-08 08:32:00,
2013-04-08 04:37:00,38.5,30.6,29.86,SSW,203,0.2,2.5,73,0.00,,,0.00,WUHU216HW,2013-04-08 08:37:00,
2013-04-08 04:42:00,38.7,30.8,29.86,SW,225,0.0,1.3,73,0.00,,,0.00,WUHU216HW,2013-04-08 08:42:00,
2013-04-08 04:47:00,39.4,30.8,29.86,NW,315,2.9,2.9,71,0.00,,,0.00,WUHU216HW,2013-04-08 08:47:00,
2013-04-08 04:52:00,41.9,33.6,29.86,North,0,1.1,6.9,72,0.00,,,0.00,WUHU216HW,2013-04-08 08:52:00,
2013-04-08 04:57:00,43.4,34.7,29.86,NNW,338,1.3,6.9,71,0.00,,,0.00,WUHU216HW,2013-04-08 08:57:00,
2013-04-08 05:02:00,43.6,34.5,29.86,NNW,338,0.9,3.8,70,0.00,,,0.00,WUHU216HW,2013-04-08 09:02:00,
2013-04-08 05:07:00,43.2,34.5,29.87,North,0,1.8,2.2,71,0.00,,,0.00,WUHU216HW,2013-04-08 09:07:00,
2013-04-08 05:12:00,43.4,34.3,29.87,NNW,338,0.7,3.6,70,0.00,,,0.00,WUHU216HW,2013-04-08 09:12:00,
2013-04-08 05:17:00,43.2,34.5,29.88,NNW,338,2.0,4.3,71,0.00,,,0.00,WUHU216HW,2013-04-08 09:17:00,
2013-04-08 05:22:00,43.4,34.3,29.88,North,0,3.1,4.3,70,0.00,,,0.00,WUHU216HW,2013-04-08 09:22:00,
2013-04-08 05:28:00,43.4,34.7,29.88,NW,315,1.8,3.4,71,0.00,,,0.00,WUHU216HW,2013-04-08 09:28:00,
2013-04-08 05:33:00,43.2,34.2,29.88,NW,315,1.1,2.5,70,0.00,,,0.00,WUHU216HW,2013-04-08 09:33:00,
2013-04-08 05:38:00,43.0,34.0,29.88,NW,315,2.2,3.1,70,0.00,,,0.00,WUHU216HW,2013-04-08 09:38:00,
2013-04-08 05:43:00,43.2,34.2,29.88,North,0,0.9,3.4,70,0.00,,,0.00,WUHU216HW,2013-04-08 09:43:00,
2013-04-08 05:48:00,43.2,34.2,29.89,NNW,338,1.8,3.4,70,0.00,,,0.00,WUHU216HW,2013-04-08 09:48:00,
2013-04-08 05:53:00,43.0,33.6,29.90,North,0,1.8,2.9,69,0.00,,,0.00,WUHU216HW,2013-04-08 09:53:00,
2013-04-08 05:58:00,43.2,33.8,29.89,NNW,338,1.8,4.7,69,0.00,,,0.00,WUHU216HW,2013-04-08 09:58:00,
2013-04-08 06:03:00,43.2,33.8,29.89,North,0,2.9,4.7,69,0.00,,,0.00,WUHU216HW,2013-04-08 10:03:00,
2013-04-08 06:08:00,43.6,33.8,29.90,NNW,338,4.0,5.8,68,0.00,,,0.00,WUHU216HW,2013-04-08 10:08:00,
2013-04-08 06:13:00,43.6,33.8,29.90,NNW,338,3.1,5.8,68,0.00,,,0.00,WUHU216HW,2013-04-08 10:13:00,
2013-04-08 06:18:00,43.4,33.6,29.90,NNW,338,4.0,5.8,68,0.00,,,0.00,WUHU216HW,2013-04-08 10:18:00,
2013-04-08 06:23:00,43.4,33.6,29.90,North,0,2.0,6.3,68,0.00,,,0.00,WUHU216HW,2013-04-08 10:23:00,
2013-04-08 06:28:00,43.2,33.4,29.91,North,0,0.9,6.3,68,0.00,,,0.00,WUHU216HW,2013-04-08 10:28:00,
2013-04-08 06:33:00,43.0,33.2,29.91,North,0,1.1,4.0,68,0.00,,,0.00,WUHU216HW,2013-04-08 10:33:00,
2013-04-08 06:38:00,42.8,33.5,29.91,NW,315,2.7,2.7,69,0.00,,,0.00,WUHU216HW,2013-04-08 10:38:00,
2013-04-08 06:43:00,42.5,33.1,29.92,NW,315,1.3,3.1,69,0.00,,,0.00,WUHU216HW,2013-04-08 10:43:00,
2013-04-08 06:48:00,42.5,33.1,29.92,NW,315,1.8,3.1,69,0.00,,,0.00,WUHU216HW,2013-04-08 10:48:00,
2013-04-08 06:53:00,42.5,33.1,29.93,North,0,0.4,2.7,69,0.00,,,0.00,WUHU216HW,2013-04-08 10:53:00,
2013-04-08 06:58:00,42.3,33.0,29.93,NNW,338,0.0,1.8,69,0.00,,,0.00,WUHU216HW,2013-04-08 10:58:00,
2013-04-08 07:03:00,42.1,33.1,29.93,NW,315,1.3,1.3,70,0.00,,,0.00,WUHU216HW,2013-04-08 11:03:00,
2013-04-08 07:08:00,42.1,33.1,29.93,NW,315,1.8,2.2,70,0.00,,,0.00,WUHU216HW,2013-04-08 11:08:00,
2013-04-08 07:13:00,42.3,33.3,29.93,NW,315,1.8,2.2,70,0.00,,,0.00,WUHU216HW,2013-04-08 11:13:00,
2013-04-08 07:18:00,42.5,33.5,29.94,NNW,338,0.9,2.2,70,0.00,,,0.00,WUHU216HW,2013-04-08 11:18:00,
2013-04-08 07:23:00,42.1,33.1,29.94,NNW,338,0.4,2.2,70,0.00,,,0.00,WUHU216HW,2013-04-08 11:23:00,
2013-04-08 07:28:00,41.9,32.9,29.94,NNW,338,1.1,1.1,70,0.00,,,0.00,WUHU216HW,2013-04-08 11:28:00,
2013-04-08 07:33:00,41.8,33.1,29.94,NNW,338,1.8,2.2,71,0.00,,,0.00,WUHU216HW,2013-04-08 11:33:00,
2013-04-08 07:38:00,42.1,33.5,29.94,NW,315,3.1,4.0,71,0.00,,,0.00,WUHU216HW,2013-04-08 11:38:00,
2013-04-08 07:43:00,42.7,33.7,29.95,North,0,1.1,4.0,70,0.00,,,0.00,WUHU216HW,2013-04-08 11:43:00,
2013-04-08 07:49:00,42.7,33.7,29.95,North,0,1.3,4.9,70,0.00,,,0.00,WUHU216HW,2013-04-08 11:49:00,
2013-04-08 07:54:00,42.7,33.7,29.95,NNW,338,1.6,4.9,70,0.00,,,0.00,WUHU216HW,2013-04-08 11:54:00,
2013-04-08 07:59:00,42.5,33.9,29.95,North,0,1.6,2.2,71,0.00,,,0.00,WUHU216HW,2013-04-08 11:59:00,
2013-04-08 08:04:00,42.5,33.5,29.96,North,0,1.3,2.5,70,0.00,,,0.00,WUHU216HW,2013-04-08 12:04:00,
2013-04-08 08:09:00,42.7,33.7,29.96,North,0,2.0,2.9,70,0.00,,,0.00,WUHU216HW,2013-04-08 12:09:00,
2013-04-08 08:14:00,42.8,33.8,29.96,North,0,1.1,2.9,70,0.00,,,0.00,WUHU216HW,2013-04-08 12:14:00,
2013-04-08 08:19:00,42.8,33.8,29.96,North,0,2.2,4.3,70,0.00,,,0.00,WUHU216HW,2013-04-08 12:19:00,
2013-04-08 08:24:00,43.0,34.0,29.97,NNW,338,3.4,4.3,70,0.00,,,0.00,WUHU216HW,2013-04-08 12:24:00,
2013-04-08 08:30:00,43.2,34.2,29.97,NNW,338,3.4,4.0,70,0.00,,,0.00,WUHU216HW,2013-04-08 12:30:00,
2013-04-08 08:35:00,43.0,33.6,29.97,North,0,2.9,6.5,69,0.00,,,0.00,WUHU216HW,2013-04-08 12:35:00,
2013-04-08 08:40:00,42.8,33.8,29.97,North,0,1.8,6.5,70,0.00,,,0.00,WUHU216HW,2013-04-08 12:40:00,
2013-04-08 08:45:00,42.8,33.5,29.97,North,0,2.0,4.3,69,0.00,,,0.00,WUHU216HW,2013-04-08 12:45:00,
2013-04-08 08:50:00,43.2,34.2,29.97,North,0,2.5,4.7,70,0.00,,,0.00,WUHU216HW,2013-04-08 12:50:00,
2013-04-08 08:55:00,43.4,33.9,29.97,North,0,4.0,4.7,69,0.00,,,0.00,WUHU216HW,2013-04-08 12:55:00,
2013-04-08 09:00:00,43.6,33.8,29.97,North,0,2.5,4.7,68,0.00,,,0.00,WUHU216HW,2013-04-08 13:00:00,
2013-04-08 09:05:00,43.4,33.6,29.98,North,0,7.6,7.6,68,0.00,,,0.00,WUHU216HW,2013-04-08 13:05:00,
2013-04-08 09:10:00,43.4,33.6,29.98,North,0,4.7,8.3,68,0.00,,,0.00,WUHU216HW,2013-04-08 13:10:00,
2013-04-08 09:15:00,43.4,33.6,29.98,NNW,338,4.7,8.3,68,0.00,,,0.00,WUHU216HW,2013-04-08 13:15:00,
2013-04-08 09:20:00,43.4,33.6,29.98,North,0,3.4,7.6,68,0.00,,,0.00,WUHU216HW,2013-04-08 13:20:00,
2013-04-08 09:25:00,43.4,33.1,29.98,NNW,338,2.9,9.4,67,0.00,,,0.00,WUHU216HW,2013-04-08 13:25:00,
2013-04-08 09:30:00,43.2,32.6,29.98,North,0,4.7,9.4,66,0.00,,,0.00,WUHU216HW,2013-04-08 13:30:00,
2013-04-08 09:35:00,43.0,32.4,29.98,North,0,4.3,8.5,66,0.00,,,0.00,WUHU216HW,2013-04-08 13:35:00,
2013-04-08 09:40:00,43.4,33.1,29.98,NNW,338,4.5,8.5,67,0.00,,,0.00,WUHU216HW,2013-04-08 13:40:00,
2013-04-08 09:45:00,43.4,32.4,29.98,NNW,338,3.8,8.5,65,0.00,,,0.00,WUHU216HW,2013-04-08 13:45:00,
2013-04-08 09:50:00,43.4,32.4,29.98,NNW,338,5.4,8.5,65,0.00,,,0.00,WUHU216HW,2013-04-08 13:50:00,
2013-04-08 09:55:00,43.6,32.6,29.98,North,0,4.3,8.1,65,0.00,,,0.00,WUHU216HW,2013-04-08 13:55:00,
2013-04-08 10:00:00,43.6,32.1,29.98,NNW,338,5.6,8.9,64,0.00,,,0.00,WUHU216HW,2013-04-08 14:00:00,
2013-04-08 10:05:00,43.6,32.1,29.99,North,0,3.8,8.9,64,0.00,,,0.00,WUHU216HW,2013-04-08 14:05:00,
2013-04-08 10:10:00,43.7,32.8,29.99,North,0,2.0,5.6,65,0.00,,,0.00,WUHU216HW,2013-04-08 14:10:00,
2013-04-08 10:15:00,44.3,32.9,29.99,North,0,2.2,4.5,64,0.00,,,0.00,WUHU216HW,2013-04-08 14:15:00,
2013-04-08 10:20:00,44.5,32.7,30.00,North,0,2.9,6.3,63,0.00,,,0.00,WUHU216HW,2013-04-08 14:20:00,
2013-04-08 10:25:00,44.3,32.5,30.00,East,90,1.6,6.5,63,0.00,,,0.00,WUHU216HW,2013-04-08 14:25:00,
2013-04-08 10:31:00,44.8,32.6,30.01,North,0,1.8,6.5,62,0.00,,,0.00,WUHU216HW,2013-04-08 14:31:00,
2013-04-08 10:36:00,45.0,32.8,30.01,North,0,4.0,5.1,62,0.00,,,0.00,WUHU216HW,2013-04-08 14:36:00,
2013-04-08 10:41:00,45.0,32.8,30.01,North,0,4.5,5.1,62,0.00,,,0.00,WUHU216HW,2013-04-08 14:41:00,
2013-04-08 10:46:00,44.6,32.0,30.01,NNW,338,3.8,9.6,61,0.00,,,0.00,WUHU216HW,2013-04-08 14:46:00,
2013-04-08 10:51:00,44.8,32.6,30.01,North,0,4.0,9.6,62,0.00,,,0.00,WUHU216HW,2013-04-08 14:51:00,
2013-04-08 10:56:00,45.0,32.4,30.01,North,0,2.0,8.9,61,0.00,,,0.00,WUHU216HW,2013-04-08 14:56:00,
2013-04-08 11:01:00,45.0,32.1,30.01,NNW,338,4.9,8.1,60,0.00,,,0.00,WUHU216HW,2013-04-08 15:01:00,
2013-04-08 11:06:00,45.2,32.6,30.02,North,0,3.4,8.1,61,0.00,,,0.00,WUHU216HW,2013-04-08 15:06:00,
2013-04-08 11:11:00,45.4,33.1,30.02,SE,135,2.0,5.6,62,0.00,,,0.00,WUHU216HW,2013-04-08 15:11:00,
2013-04-08 11:16:00,45.9,32.9,30.01,NE,45,2.9,5.6,60,0.00,,,0.00,WUHU216HW,2013-04-08 15:16:00,
2013-04-08 11:21:00,46.8,33.2,30.01,North,0,4.0,8.5,59,0.00,,,0.00,WUHU216HW,2013-04-08 15:21:00,
2013-04-08 11:26:00,46.6,32.6,30.02,North,0,2.5,8.5,58,0.00,,,0.00,WUHU216HW,2013-04-08 15:26:00,
2013-04-08 11:31:00,46.6,33.0,30.02,North,0,2.5,6.3,59,0.00,,,0.00,WUHU216HW,2013-04-08 15:31:00,
2013-04-08 11:36:00,47.0,32.5,30.01,NNW,338,3.8,6.7,57,0.00,,,0.00,WUHU216HW,2013-04-08 15:36:00,
2013-04-08 11:42:00,48.1,34.5,30.01,NNE,23,2.7,7.2,59,0.00,,,0.00,WUHU216HW,2013-04-08 15:42:00,
2013-04-08 11:47:00,48.4,34.3,30.01,NNW,338,2.5,7.2,58,0.00,,,0.00,WUHU216HW,2013-04-08 15:47:00,
2013-04-08 11:52:00,48.6,34.5,30.01,ENE,68,3.4,6.0,58,0.00,,,0.00,WUHU216HW,2013-04-08 15:52:00,
2013-04-08 11:57:00,49.0,34.4,30.00,North,0,1.8,6.3,57,0.00,,,0.00,WUHU216HW,2013-04-08 15:57:00,
2013-04-08 12:03:00,49.1,34.1,30.01,North,0,4.7,7.2,56,0.00,,,0.00,WUHU216HW,2013-04-08 16:03:00,
2013-04-08 12:08:00,49.5,33.5,30.00,NNW,338,6.9,7.6,54,0.00,,,0.00,WUHU216HW,2013-04-08 16:08:00,
2013-04-08 12:13:00,49.3,33.8,30.00,NNW,338,6.3,8.5,55,0.00,,,0.00,WUHU216HW,2013-04-08 16:13:00,
2013-04-08 12:18:00,49.7,33.2,30.00,North,0,8.7,8.7,53,0.00,,,0.00,WUHU216HW,2013-04-08 16:18:00,
2013-04-08 12:23:00,50.2,33.8,30.00,SE,135,1.1,8.7,53,0.00,,,0.00,WUHU216HW,2013-04-08 16:23:00,
2013-04-08 12:28:00,50.6,33.6,30.00,ENE,68,6.3,7.6,52,0.00,,,0.00,WUHU216HW,2013-04-08 16:28:00,
2013-04-08 12:33:00,50.4,33.9,30.00,NNE,23,4.3,6.9,53,0.00,,,0.00,WUHU216HW,2013-04-08 16:33:00,
2013-04-08 12:38:00,50.8,34.7,29.99,North,0,2.5,6.9,54,0.00,,,0.00,WUHU216HW,2013-04-08 16:38:00,
2013-04-08 12:43:00,50.8,33.3,29.99,ENE,68,5.1,8.5,51,0.00,,,0.00,WUHU216HW,2013-04-08 16:43:00,
2013-04-08 12:48:00,50.8,33.8,29.99,NE,45,1.3,8.5,52,0.00,,,0.00,WUHU216HW,2013-04-08 16:48:00,
2013-04-08 12:53:00,51.5,33.9,29.99,East,90,2.2,6.0,51,0.00,,,0.00,WUHU216HW,2013-04-08 16:53:00,
2013-04-08 12:58:00,51.8,33.8,29.99,North,0,2.5,4.9,50,0.00,,,0.00,WUHU216HW,2013-04-08 16:58:00,
2013-04-08 13:03:00,51.5,33.5,29.98,North,0,3.8,7.8,50,0.00,,,0.00,WUHU216HW,2013-04-08 17:03:00,
2013-04-08 13:08:00,51.8,33.3,29.98,NNW,338,3.1,7.8,49,0.00,,,0.00,WUHU216HW,2013-04-08 17:08:00,
2013-04-08 13:13:00,52.0,33.5,29.98,NNW,338,3.6,6.0,49,0.00,,,0.00,WUHU216HW,2013-04-08 17:13:00,
2013-04-08 13:18:00,52.0,32.9,29.99,SE,135,1.8,5.1,48,0.00,,,0.00,WUHU216HW,2013-04-08 17:18:00,
2013-04-08 13:23:00,52.4,33.2,29.99,NW,315,4.9,6.3,48,0.00,,,0.00,WUHU216HW,2013-04-08 17:23:00,
2013-04-08 13:28:00,52.6,33.4,29.99,NNE,23,2.5,6.5,48,0.00,,,0.00,WUHU216HW,2013-04-08 17:28:00,
2013-04-08 13:33:00,52.9,33.7,29.99,North,0,2.5,6.5,48,0.00,,,0.00,WUHU216HW,2013-04-08 17:33:00,
2013-04-08 13:38:00,52.9,32.6,29.98,NNE,23,3.4,8.5,46,0.00,,,0.00,WUHU216HW,2013-04-08 17:38:00,
2013-04-08 13:44:00,53.1,33.8,29.99,NE,45,3.4,8.5,48,0.00,,,0.00,WUHU216HW,2013-04-08 17:44:00,
2013-04-08 13:49:00,53.1,33.8,29.98,SSE,158,2.2,6.5,48,0.00,,,0.00,WUHU216HW,2013-04-08 17:49:00,
2013-04-08 13:54:00,53.6,34.4,29.98,North,0,3.4,6.5,48,0.00,,,0.00,WUHU216HW,2013-04-08 17:54:00,
2013-04-08 13:59:00,54.0,33.6,29.98,NNW,338,3.1,5.8,46,0.00,,,0.00,WUHU216HW,2013-04-08 17:59:00,
2013-04-08 14:04:00,54.0,33.0,29.98,ENE,68,5.4,5.8,45,0.00,,,0.00,WUHU216HW,2013-04-08 18:04:00,
2013-04-08 14:09:00,54.0,34.1,29.97,North,0,2.2,6.7,47,0.00,,,0.00,WUHU216HW,2013-04-08 18:09:00,
2013-04-08 14:15:00,54.0,33.6,29.97,NNW,338,3.4,6.7,46,0.00,,,0.00,WUHU216HW,2013-04-08 18:15:00,
2013-04-08 14:20:00,53.6,33.2,29.97,WNW,293,1.1,5.4,46,0.00,,,0.00,WUHU216HW,2013-04-08 18:20:00,
2013-04-08 14:25:00,54.0,33.6,29.97,North,0,1.8,6.3,46,0.00,,,0.00,WUHU216HW,2013-04-08 18:25:00,
2013-04-08 14:30:00,54.4,33.8,29.97,NW,315,2.5,6.3,46,0.00,,,0.00,WUHU216HW,2013-04-08 18:30:00,
2013-04-08 14:35:00,54.4,33.3,29.97,NNE,23,1.3,4.7,45,0.00,,,0.00,WUHU216HW,2013-04-08 18:35:00,
2013-04-08 14:40:00,54.5,34.0,29.97,SE,135,4.7,7.2,46,0.00,,,0.00,WUHU216HW,2013-04-08 18:40:00,
2013-04-08 14:45:00,54.5,34.0,29.97,NW,315,0.4,7.2,46,0.00,,,0.00,WUHU216HW,2013-04-08 18:45:00,
2013-04-08 14:50:00,55.1,32.9,29.97,ESE,113,0.4,4.7,43,0.00,,,0.00,WUHU216HW,2013-04-08 18:50:00,
2013-04-08 14:55:00,55.1,33.4,29.97,SSE,158,5.6,5.6,44,0.00,,,0.00,WUHU216HW,2013-04-08 18:55:00,
2013-04-08 15:00:00,55.6,34.5,29.96,NNE,23,2.0,5.6,45,0.00,,,0.00,WUHU216HW,2013-04-08 19:00:00,
2013-04-08 15:05:00,55.8,32.9,29.97,NNW,338,1.8,4.7,42,0.00,,,0.00,WUHU216HW,2013-04-08 19:05:00,
2013-04-08 15:10:00,55.8,34.1,29.97,East,90,2.0,3.4,44,0.00,,,0.00,WUHU216HW,2013-04-08 19:10:00,
2013-04-08 15:15:00,55.8,33.5,29.97,SSE,158,2.5,2.9,43,0.00,,,0.00,WUHU216HW,2013-04-08 19:15:00,
2013-04-08 15:21:00,56.7,35.5,29.97,ESE,113,0.4,4.7,45,0.00,,,0.00,WUHU216HW,2013-04-08 19:21:00,
2013-04-08 15:27:00,56.7,33.2,29.98,ENE,68,1.1,4.7,41,0.00,,,0.00,WUHU216HW,2013-04-08 19:27:00,
2013-04-08 15:32:00,57.1,33.6,29.97,East,90,4.3,4.3,41,0.00,,,0.00,WUHU216HW,2013-04-08 19:32:00,
2013-04-08 15:37:00,56.9,33.9,29.96,ESE,113,1.3,4.7,42,0.00,,,0.00,WUHU216HW,2013-04-08 19:37:00,
2013-04-08 15:42:00,57.4,34.5,29.96,SSE,158,0.7,4.7,42,0.00,,,0.00,WUHU216HW,2013-04-08 19:42:00,
2013-04-08 15:47:00,57.2,33.7,29.95,NNW,338,3.8,4.7,41,0.00,,,0.00,WUHU216HW,2013-04-08 19:47:00,
2013-04-08 15:52:00,56.5,33.0,29.95,NNW,338,1.6,4.7,41,0.00,,,0.00,WUHU216HW,2013-04-08 19:52:00,
2013-04-08 15:57:00,56.2,32.7,29.96,North,0,4.7,6.0,41,0.00,,,0.00,WUHU216HW,2013-04-08 19:57:00,
2013-04-08 16:02:00,56.0,33.1,29.95,North,0,3.4,6.0,42,0.00,,,0.00,WUHU216HW,2013-04-08 20:02:00,
2013-04-08 16:07:00,55.8,33.5,29.95,NW,315,4.0,4.7,43,0.00,,,0.00,WUHU216HW,2013-04-08 20:07:00,
2013-04-08 16:12:00,56.5,34.7,29.94,NNW,338,3.4,4.3,44,0.00,,,0.00,WUHU216HW,2013-04-08 20:12:00,
2013-04-08 16:17:00,56.5,33.0,29.94,North,0,4.3,4.5,41,0.00,,,0.00,WUHU216HW,2013-04-08 20:17:00,
2013-04-08 16:22:00,56.5,33.0,29.94,East,90,1.3,4.5,41,0.00,,,0.00,WUHU216HW,2013-04-08 20:22:00,
2013-04-08 16:27:00,56.9,33.4,29.94,North,0,2.5,3.8,41,0.00,,,0.00,WUHU216HW,2013-04-08 20:27:00,
2013-04-08 16:32:00,57.2,33.7,29.94,NW,315,2.2,3.8,41,0.00,,,0.00,WUHU216HW,2013-04-08 20:32:00,
2013-04-08 16:37:00,56.9,32.8,29.94,NW,315,2.2,4.3,40,0.00,,,0.00,WUHU216HW,2013-04-08 20:37:00,
2013-04-08 16:42:00,56.5,33.0,29.93,NW,315,2.2,4.3,41,0.00,,,0.00,WUHU216HW,2013-04-08 20:42:00,
2013-04-08 16:47:00,56.9,33.4,29.93,West,270,1.8,3.4,41,0.00,,,0.00,WUHU216HW,2013-04-08 20:47:00,
2013-04-08 16:52:00,56.2,32.7,29.93,NW,315,3.8,4.0,41,0.00,,,0.00,WUHU216HW,2013-04-08 20:52:00,
2013-04-08 16:57:00,55.3,33.0,29.93,NNW,338,1.8,4.0,43,0.00,,,0.00,WUHU216HW,2013-04-08 20:57:00,
2013-04-08 17:02:00,55.1,32.9,29.93,NW,315,2.2,3.8,43,0.00,,,0.00,WUHU216HW,2013-04-08 21:02:00,
2013-04-08 17:07:00,55.4,33.2,29.93,NW,315,1.8,3.4,43,0.00,,,0.00,WUHU216HW,2013-04-08 21:07:00,
2013-04-08 17:12:00,55.4,33.2,29.93,NW,315,1.8,2.7,43,0.00,,,0.00,WUHU216HW,2013-04-08 21:12:00,
2013-04-08 17:17:00,54.7,32.5,29.93,NNW,338,3.4,4.0,43,0.00,,,0.00,WUHU216HW,2013-04-08 21:17:00,
2013-04-08 17:23:00,54.0,32.4,29.93,NW,315,2.0,4.0,44,0.00,,,0.00,WUHU216HW,2013-04-08 21:23:00,
2013-04-08 17:28:00,53.6,32.7,29.93,NW,315,1.8,2.7,45,0.00,,,0.00,WUHU216HW,2013-04-08 21:28:00,
2013-04-08 17:33:00,53.3,32.3,29.93,WNW,293,1.1,2.2,45,0.00,,,0.00,WUHU216HW,2013-04-08 21:33:00,
2013-04-08 17:38:00,53.1,32.8,29.93,WNW,293,1.1,2.2,46,0.00,,,0.00,WUHU216HW,2013-04-08 21:38:00,
2013-04-08 17:43:00,53.1,32.8,29.92,West,270,1.1,1.8,46,0.00,,,0.00,WUHU216HW,2013-04-08 21:43:00,
2013-04-08 17:48:00,53.5,33.0,29.93,NW,315,2.2,2.2,46,0.00,,,0.00,WUHU216HW,2013-04-08 21:48:00,
2013-04-08 17:53:00,53.5,32.5,29.93,NW,315,3.1,3.1,45,0.00,,,0.00,WUHU216HW,2013-04-08 21:53:00,
2013-04-08 17:58:00,53.6,32.7,29.93,WNW,293,1.8,3.4,45,0.00,,,0.00,WUHU216HW,2013-04-08 21:58:00,
2013-04-08 18:03:00,53.5,32.5,29.93,West,270,0.9,3.4,45,0.00,,,0.00,WUHU216HW,2013-04-08 22:03:00,
2013-04-08 18:08:00,53.3,32.3,29.93,West,270,1.6,1.8,45,0.00,,,0.00,WUHU216HW,2013-04-08 22:08:00,
2013-04-08 18:13:00,52.9,32.6,29.93,West,270,0.4,1.8,46,0.00,,,0.00,WUHU216HW,2013-04-08 22:13:00,
2013-04-08 18:18:00,52.7,32.4,29.93,North,0,0.0,1.8,46,0.00,,,0.00,WUHU216HW,2013-04-08 22:18:00,
2013-04-08 18:23:00,52.0,32.3,29.93,North,0,0.0,0.4,47,0.00,,,0.00,WUHU216HW,2013-04-08 22:23:00,
2013-04-08 18:28:00,51.1,32.7,29.93,North,0,1.1,1.1,49,0.00,,,0.00,WUHU216HW,2013-04-08 22:28:00,
2013-04-08 18:33:00,50.8,32.3,29.93,NNW,338,0.4,1.3,49,0.00,,,0.00,WUHU216HW,2013-04-08 22:33:00,
2013-04-08 18:38:00,50.6,32.1,29.93,NNW,338,0.0,1.3,49,0.00,,,0.00,WUHU216HW,2013-04-08 22:38:00,
2013-04-08 18:43:00,49.7,32.3,29.93,NNW,338,1.1,1.3,51,0.00,,,0.00,WUHU216HW,2013-04-08 22:43:00,
2013-04-08 18:49:00,49.3,32.0,29.93,NNW,338,1.1,1.3,51,0.00,,,0.00,WUHU216HW,2013-04-08 22:49:00,
2013-04-08 18:54:00,48.6,31.2,29.93,NNW,338,0.4,1.1,51,0.00,,,0.00,WUHU216HW,2013-04-08 22:54:00,
2013-04-08 18:59:00,47.9,32.4,29.93,North,0,0.4,1.8,55,0.00,,,0.00,WUHU216HW,2013-04-08 22:59:00,
2013-04-08 19:04:00,47.3,31.4,29.93,North,0,0.2,1.8,54,0.00,,,0.00,WUHU216HW,2013-04-08 23:04:00,
2013-04-08 19:09:00,46.8,31.4,29.93,NNW,338,0.0,1.1,55,0.00,,,0.00,WUHU216HW,2013-04-08 23:09:00,
2013-04-08 19:14:00,46.4,31.1,29.93,NNW,338,0.0,1.1,55,0.00,,,0.00,WUHU216HW,2013-04-08 23:14:00,
2013-04-08 19:19:00,46.1,31.1,29.93,NNW,338,0.0,0.4,56,0.00,,,0.00,WUHU216HW,2013-04-08 23:19:00,
2013-04-08 19:24:00,45.9,30.6,29.93,SSE,158,0.0,1.3,55,0.00,,,0.00,WUHU216HW,2013-04-08 23:24:00,
2013-04-08 19:29:00,45.4,30.5,29.93,SSE,158,0.0,1.3,56,0.00,,,0.00,WUHU216HW,2013-04-08 23:29:00,
2013-04-08 19:34:00,44.6,29.9,29.94,West,270,0.2,0.4,56,0.00,,,0.00,WUHU216HW,2013-04-08 23:34:00,
2013-04-08 19:39:00,44.3,30.9,29.94,NNW,338,0.4,0.4,59,0.00,,,0.00,WUHU216HW,2013-04-08 23:39:00,
2013-04-08 19:44:00,43.6,29.7,29.94,NNW,338,0.0,0.7,58,0.00,,,0.00,WUHU216HW,2013-04-08 23:44:00,
2013-04-08 19:49:00,43.2,29.3,29.94,NNW,338,0.0,0.7,58,0.00,,,0.00,WUHU216HW,2013-04-08 23:49:00,
2013-04-08 19:55:00,42.8,29.9,29.94,SE,135,0.0,1.1,60,0.00,,,0.00,WUHU216HW,2013-04-08 23:55:00,
2013-04-08 20:00:00,42.5,29.2,29.95,NW,315,0.4,1.1,59,0.00,,,0.00,WUHU216HW,2013-04-09 00:00:00,
2013-04-08 20:05:00,42.1,29.3,29.95,NW,315,0.0,1.1,60,0.00,,,0.00,WUHU216HW,2013-04-09 00:05:00,
2013-04-08 20:10:00,41.8,29.3,29.95,ESE,113,0.0,0.9,61,0.00,,,0.00,WUHU216HW,2013-04-09 00:10:00,
2013-04-08 20:15:00,41.4,29.7,29.95,WNW,293,0.9,1.1,63,0.00,,,0.00,WUHU216HW,2013-04-09 00:15:00,
2013-04-08 20:20:00,41.2,29.5,29.95,NNW,338,0.4,1.1,63,0.00,,,0.00,WUHU216HW,2013-04-09 00:20:00,
2013-04-08 20:25:00,40.9,30.3,29.96,NNW,338,0.9,1.1,66,0.00,,,0.00,WUHU216HW,2013-04-09 00:25:00,
2013-04-08 20:30:00,40.5,31.5,29.95,North,0,0.2,1.3,70,0.00,,,0.00,WUHU216HW,2013-04-09 00:30:00,
2013-04-08 20:35:00,40.1,30.4,29.95,NNW,338,0.7,1.8,68,0.00,,,0.00,WUHU216HW,2013-04-09 00:35:00,
2013-04-08 20:40:00,40.3,31.0,29.95,NNW,338,1.1,1.8,69,0.00,,,0.00,WUHU216HW,2013-04-09 00:40:00,
2013-04-08 20:45:00,40.1,30.4,29.95,NE,45,0.0,1.6,68,0.00,,,0.00,WUHU216HW,2013-04-09 00:45:00,
2013-04-08 20:50:00,40.0,30.3,29.96,North,0,0.0,1.3,68,0.00,,,0.00,WUHU216HW,2013-04-09 00:50:00,
2013-04-08 20:55:00,40.0,29.8,29.96,NNW,338,0.0,1.3,67,0.00,,,0.00,WUHU216HW,2013-04-09 00:55:00,
2013-04-08 21:00:00,39.6,29.4,29.96,NNW,338,0.0,0.7,67,0.00,,,0.00,WUHU216HW,2013-04-09 01:00:00,
2013-04-08 21:05:00,39.2,29.1,29.96,NNW,338,0.9,0.9,67,0.00,,,0.00,WUHU216HW,2013-04-09 01:05:00,
2013-04-08 21:10:00,39.2,29.1,29.97,NNW,338,0.0,0.9,67,0.00,,,0.00,WUHU216HW,2013-04-09 01:10:00,
2013-04-08 21:15:00,39.2,29.1,29.96,NNW,338,0.0,0.9,67,0.00,,,0.00,WUHU216HW,2013-04-09 01:15:00,
2013-04-08 21:20:00,39.1,29.7,29.96,NNW,338,0.0,0.7,69,0.00,,,0.00,WUHU216HW,2013-04-09 01:20:00,
2013-04-08 21:25:00,38.9,30.2,29.96,NNW,338,0.4,0.7,71,0.00,,,0.00,WUHU216HW,2013-04-09 01:25:00,
2013-04-08 21:30:00,38.7,30.1,29.96,NNW,338,0.2,0.9,71,0.00,,,0.00,WUHU216HW,2013-04-09 01:30:00,
2013-04-08 21:35:00,38.5,30.0,29.97,NNW,338,0.0,0.9,71,0.00,,,0.00,WUHU216HW,2013-04-09 01:35:00,
2013-04-08 21:40:00,38.3,29.4,29.96,NNW,338,0.0,0.4,70,0.00,,,0.00,WUHU216HW,2013-04-09 01:40:00,
2013-04-08 21:45:00,38.3,29.1,29.96,NNW,338,0.0,0.4,69,0.00,,,0.00,WUHU216HW,2013-04-09 01:45:00,
2013-04-08 21:50:00,38.2,28.9,29.96,NNW,338,0.0,0.0,69,0.00,,,0.00,WUHU216HW,2013-04-09 01:50:00,
2013-04-08 21:55:00,38.0,29.1,29.96,NNW,338,0.0,0.0,70,0.00,,,0.00,WUHU216HW,2013-04-09 01:55:00,
2013-04-08 22:00:00,38.0,29.4,29.95,NNW,338,0.0,1.1,71,0.00,,,0.00,WUHU216HW,2013-04-09 02:00:00,
2013-04-08 22:05:00,37.8,30.0,29.95,NNW,338,0.0,1.1,73,0.00,,,0.00,WUHU216HW,2013-04-09 02:05:00,
2013-04-08 22:10:00,37.8,30.0,29.95,NNW,338,0.2,0.4,73,0.00,,,0.00,WUHU216HW,2013-04-09 02:10:00,
2013-04-08 22:15:00,37.8,29.3,29.95,NNW,338,0.0,0.4,71,0.00,,,0.00,WUHU216HW,2013-04-09 02:15:00,
2013-04-08 22:20:00,37.8,29.6,29.94,NNW,338,0.0,0.4,72,0.00,,,0.00,WUHU216HW,2013-04-09 02:20:00,
2013-04-08 22:25:00,37.8,29.6,29.94,NNW,338,0.0,0.4,72,0.00,,,0.00,WUHU216HW,2013-04-09 02:25:00,
2013-04-08 22:30:00,37.8,29.3,29.94,NNW,338,0.0,0.0,71,0.00,,,0.00,WUHU216HW,2013-04-09 02:30:00,
2013-04-08 22:35:00,38.0,29.4,29.94,NNW,338,0.0,0.0,71,0.00,,,0.00,WUHU216HW,2013-04-09 02:35:00,
2013-04-08 22:40:00,38.2,30.0,29.94,NNW,338,0.0,0.0,72,0.00,,,0.00,WUHU216HW,2013-04-09 02:40:00,
2013-04-08 22:45:00,38.2,29.6,29.94,NNW,338,0.0,0.0,71,0.00,,,0.00,WUHU216HW,2013-04-09 02:45:00,
2013-04-08 22:50:00,38.2,29.6,29.94,NNW,338,0.0,0.0,71,0.00,,,0.00,WUHU216HW,2013-04-09 02:50:00,
2013-04-08 22:55:00,38.2,30.0,29.94,SE,135,0.0,0.7,72,0.00,,,0.00,WUHU216HW,2013-04-09 02:55:00,
2013-04-08 23:00:00,38.2,30.0,29.94,SE,135,0.0,0.9,72,0.00,,,0.00,WUHU216HW,2013-04-09 03:00:00,
2013-04-08 23:05:00,38.2,30.0,29.94,SE,135,0.0,0.9,72,0.00,,,0.00,WUHU216HW,2013-04-09 03:05:00,
2013-04-08 23:10:00,38.2,29.6,29.93,SE,135,0.0,0.0,71,0.00,,,0.00,WUHU216HW,2013-04-09 03:10:00,
2013-04-08 23:15:00,38.2,29.6,29.93,SE,135,0.0,0.0,71,0.00,,,0.00,WUHU216HW,2013-04-09 03:15:00,
2013-04-08 23:20:00,38.3,29.8,29.93,SE,135,0.0,0.0,71,0.00,,,0.00,WUHU216HW,2013-04-09 03:20:00,
2013-04-08 23:25:00,38.3,29.8,29.92,SSE,158,0.0,0.0,71,0.00,,,0.00,WUHU216HW,2013-04-09 03:25:00,
2013-04-08 23:30:00,38.3,30.1,29.92,SSE,158,0.0,0.0,72,0.00,,,0.00,WUHU216HW,2013-04-09 03:30:00,
2013-04-08 23:35:00,38.3,30.1,29.92,SSE,158,0.0,0.0,72,0.00,,,0.00,WUHU216HW,2013-04-09 03:35:00,
2013-04-08 23:40:00,38.3,29.8,29.92,SSE,158,0.0,0.0,71,0.00,,,0.00,WUHU216HW,2013-04-09 03:40:00,
2013-04-08 23:45:00,38.5,30.0,29.92,SSE,158,0.0,0.0,71,0.00,,,0.00,WUHU216HW,2013-04-09 03:45:00,
2013-04-08 23:50:00,38.5,30.0,29.92,SSW,203,0.0,0.0,71,0.00,,,0.00,WUHU216HW,2013-04-09 03:50:00,
2013-04-08 23:56:00,38.5,30.2,29.91,WSW,248,0.2,0.7,72,0.00,,,0.00,WUHU216HW,2013-04-09 03:56:00,